EDP DISTRIBUIÇÃO MEIA MARATONA DE ÉVORA - 10K

Tabela de Prémios | Solicitar Prémio


Dorsal Lugar Nome Sexo Categoria Clube Tempo Oficial Tempo Chip Fotografia Certificado
4737 34 Paula Ramalho Geral F-V45 Casa Do Benfica De Reguengos De Monsaraz 00:43:20.223 00:43:15.696 Ver Descarregar
4602 197 Maria Gonçalves Geral F-V45 Slowdown Running 00:54:24.273 00:53:24.230 Ver Descarregar
8000 204 Carla Moita Geral F-V45 Individual 00:54:36.563 00:51:35.403 Ver Descarregar
4868 255 Sandra Semião Geral F-V45 Everybody 00:56:27.107 00:53:40.070 Ver Descarregar
4274 302 Carla Mendes Geral F-V45 Gurus 00:58:04.090 00:57:40.557 Ver Descarregar
4873 309 Olga Caiado Geral F-V45 Domingueira Vendas Novas 00:58:19.000 00:56:45.457 Ver Descarregar
4795 333 Catarina Fortes Geral F-V45 Correr Em Évora 00:59:03.510 00:57:34.983 Ver Descarregar
4135 339 Maria Rocha Geral F-V45 Individual 00:59:12.260 00:58:05.733 Ver Descarregar
4674 366 Filomena Carvalho Geral F-V45 Udcb Terras De Barro 01:00:03.323 00:59:46.050 Ver Descarregar
4761 376 Natália Fernandes Geral F-V45 Atkrsd 01:00:25.763 00:58:48.453 Ver Descarregar
4075 383 Maria Rodrigues Geral F-V45 Peniche@Correr 01:00:43.200 00:58:48.413 Ver Descarregar
4830 433 Esmeralda Ramalho Geral F-V45 Individual 01:02:01.517 01:01:16.234 Ver Descarregar
4934 442 Inês Amral Geral F-V45 Individual 01:02:15.267 01:01:30.990 Ver Descarregar
4598 445 Ana Paula Geral F-V45 Individual 01:02:17.770 01:01:32.980 Ver Descarregar
4663 471 Carla Mota Geral F-V45 Évora Night Runners 01:03:00.520 01:00:43.733 Ver Descarregar
4119 503 Cristina Lopes Geral F-V45 A. T. R. Cabras Doidas 01:03:52.560 01:02:59.017 Ver Descarregar
4503 511 Célia Rosado Geral F-V45 Gurus 01:04:05.047 01:03:54.620 Ver Descarregar
4647 517 Ana Racha Geral F-V45 Évora Night Runners 01:04:14.773 01:01:59.230 Ver Descarregar
4714 537 Margarida Nunes Geral F-V45 Caminhadas Ao Luar 01:04:45.023 01:02:40.736 Ver Descarregar
4548 538 Maria Barreto Geral F-V45 Évora Night Runners 01:04:48.017 01:02:08.727 Ver Descarregar
4183 565 Celina Serrano Geral F-V45 Individual 01:05:58.790 01:05:08.510 Ver Descarregar
4852 598 Aida Lobo Geral F-V45 Everybody 01:07:17.280 01:05:11.250 Ver Descarregar
4885 607 Mouralinda Serralha Geral F-V45 Núcleo Cicloturismo De Arraiolos 01:07:45.030 01:06:51.500 Ver Descarregar
4422 638 Ivone Minelli Geral F-V45 Individual 01:09:16.487 01:07:12.460 Ver Descarregar
4419 639 Ana Godinho Geral F-V45 Individual 01:09:18.987 01:07:06.457 Ver Descarregar
4896 640 Luzia Barroso Geral F-V45 Individual 01:09:24.577 01:09:08.280 Ver Descarregar
4427 644 Rosa Varela Geral F-V45 Individual 01:09:37.533 01:07:38.506 Ver Descarregar
4239 656 Maria João Geral F-V45 Bombeiros Voluntários Montemor-O-Novo 01:10:34.977 01:08:42.807 Ver Descarregar
4765 720 Maria Drof Geral F-V45 Individual 01:13:33.553 01:12:40.276 Ver Descarregar
4621 721 Célia Rodrigues Geral F-V45 Évorawodbox 01:13:34.233 01:12:40.956 Ver Descarregar
4158 725 Isabel Silva Geral F-V45 Individual 01:13:53.697 01:11:58.164 Ver Descarregar
4389 741 Sandra Prates Geral F-V45 Margaridas 01:15:08.193 01:13:56.916 Ver Descarregar
4601 745 Elsa Morgado Geral F-V45 Slowdown Running 01:15:18.547 01:14:17.377 Ver Descarregar
4655 747 Maria Vieira Geral F-V45 Évorawodbox 01:15:38.040 01:14:36.503 Ver Descarregar
5017 763 Diana Oliveira Geral F-V45 Individual 01:16:56.170 01:14:50.613 Ver Descarregar
4037 764 Rita Palma Geral F-V45 Dream Runners Évora 01:17:02.177 01:16:07.147 Ver Descarregar
4417 766 Vera Freixial Geral F-V45 Juventude S C 01:17:06.300 01:14:31.010 Ver Descarregar
4410 789 Ana Nunes Geral F-V45 Individual 01:18:30.047 01:17:53.260 Ver Descarregar
4781 794 Virginia Canento Geral F-V45 Correr Em Évora 01:19:06.557 01:16:47.270 Ver Descarregar
4777 794 Carla Mendes Geral F-V45 Correr Em Évora 01:19:06.557 01:16:47.020 Ver Descarregar
4723 816 Isabel Fernandes Geral F-V45 Levante 01:23:33.313 01:22:15.010 Ver Descarregar
4002 817 Rosaclara Carvalhais Geral F-V45 Individual 01:23:58.057 01:23:27.000 Ver Descarregar
4683 823 Ana Fonseca Geral F-V45 Individual 01:24:33.097 01:23:15.274 Ver Descarregar
4690 832 Rosalina Velhinho Geral F-V45 Eu E Tu 01:26:07.820 01:24:36.790 Ver Descarregar
4015 833 Paula Quezada Geral F-V45 Orbis 01:26:08.337 01:23:32.784 Ver Descarregar
4631 858 Paula Assunção Geral F-V45 Competitivas 01:33:29.337 01:30:44.047 Ver Descarregar
4788 860 Sandra Zuzarte Geral F-V45 Individual 01:34:17.340 01:33:42.807 Ver Descarregar